Snowfall_Accumulation
1.1 0.0 0.0 0.0 0.0 0.0 0.0 0.0 0.0 0.0 0.0 0.0 0.0 0.0 0.0 0.0 0.0 0.0 0.0 0.0 0.0 0.0 0.0 0.0 0.0 0.0 0.0
0.1 0.0 0.0 0.0 0.0 0.0 0.0 0.0 0.0 0.0 0.0 0.0 0.0 0.0 0.0 0.0 0.1 0.0 0.0 0.0 0.0 0.0 0.0 0.0 0.0 0.0 0.0
0.1 0.0 0.0 0.0 0.0 0.0 0.0 0.0 0.0 0.0 0.0 0.0 0.0 0.0 0.0 0.0 0.0 0.4 0.2 0.0 0.0 0.0 0.0 0.0 0.0 0.0 0.0
0.1 1.2 0.3 0.1 0.4 0.2 0.0 0.0 0.0 0.0 0.0 0.0 0.0 0.0 0.0 0.0 0.0 0.0 0.0 0.0 0.0 0.1 0.0 0.0 0.0 0.0 0.0
2.7 1.7 1.4 0.0 0.0 0.0 0.1 0.0 0.1 0.0 0.0 0.0 0.0 0.0 0.0 0.0 0.0 0.0 0.0 0.1 0.1 0.2 0.2 0.1 0.2 0.0 0.0
4.6 0.9 0.1 0.1 0.0 0.2 1.3 1.4 1.5 0.0 0.2 0.2 0.0 0.0 0.0 0.0 0.0 0.0 0.1 0.2 0.0 0.5 0.6 0.7 0.0 0.0 0.0
0.5 0.3 0.4 0.1 1.9 2.6 1.9 3.4 2.4 0.0 0.3 0.4 0.0 0.0 0.0 0.0 0.0 0.0 0.1 0.1 0.2 0.4 0.7 0.6 0.7 0.0 0.0
0.2 0.4 1.1 0.7 1.4 2.6 3.6 2.0 0.4 0.1 0.3 1.9 0.2 0.1 0.0 0.0 0.0 0.0 0.0 0.2 0.4 0.7 0.7 0.7 0.8 0.6 0.3
0.6 0.5 0.3 0.0 0.0 2.3 2.8 3.1 2.3 0.2 0.1 0.7 0.3 0.4 0.2 0.1 0.0 0.0 0.4 0.1 0.6 0.4 0.6 0.4 0.6 0.3 0.0
0.1 0.1 0.0 0.0 0.0 0.6 5.4 10.9 5.2 4.0 0.1 4.7 1.9 1.8 5.5 2.1 1.7 1.4 0.1 0.0 0.0 0.1 0.3 0.5 0.4 0.7 1.0
0.0 0.0 0.0 0.0 0.2 0.7 2.5 9.1 12.5 8.1 0.2 9.7 11.0 1.5 9.4 5.5 3.5 3.7 2.9 0.1 0.2 0.0 0.0 0.4 0.7 0.9 3.2
0.2 0.3 0.2 0.2 0.2 0.3 0.4 2.3 4.3 8.9 2.9 4.9 20.9 11.6 15.1 10.8 5.5 5.1 2.6 3.9 2.4 1.4 0.6 0.6 0.6 1.2 1.3
2.3 1.6 2.2 1.6 2.9 5.0 6.8 7.1 7.9 9.1 9.1 8.0 11.8 12.2 14.1 14.3 9.1 5.5 7.0 6.1 4.7 6.5 4.5 2.3 3.0 1.7 2.3
4.6 3.9 5.3 6.0 6.2 7.4 11.6 9.5 10.9 8.5 6.5 6.5 7.8 10.1 11.0 7.8 11.0 9.0 6.8 11.2 10.3 9.9 9.7 5.0 1.7 0.9 1.1
4.8 4.8 4.7 7.4 7.5 9.2 13.3 12.1 11.5 8.6 6.2 6.1 7.3 5.5 5.4 7.2 13.3 8.7 12.3 10.8 11.2 14.9 12.7 7.3 7.2 5.5 2.2
7.7 7.7 9.1 11.3 13.6 14.9 14.9 14.1 12.8 8.4 9.4 6.7 7.1 8.7 9.4 6.1 10.9 13.7 12.3 14.7 17.5 18.8 15.8 10.3 9.6 8.0 4.4
10.5 10.0 12.4 15.3 17.3 15.8 13.8 13.0 11.2 8.8 6.8 6.5 9.8 14.1 17.2 9.2 7.0 10.1 16.3 14.8 13.3 14.7 17.0 12.7 12.4 8.5 2.1